Tracking 19477 objects as of 16-Jan-2019
HD Live streaming from Space Station
objects crossing your sky now

SOMP-2

Track SOMP-2 now!
10-day predictions
SOMP-2 is classified as:


NORAD ID: 42701
Int'l Code: 1998-067LJ
Perigee: 310.0 km
Apogee: 313.4 km
Inclination: 51.6 °
Period: 90.6 minutes
Semi major axis: 6682 km
RCS: Unknown
Launch date: November 20, 1998
Source: Germany (GER)
Launch site: TYURATAM MISSILE AND SPACE COMPLEX (TTMTR)

Uplink (MHz):
Downlink (MHz): 437.405
Beacon (MHz):
Mode: 9600bps GMSK
Call sign:
Status: Inactive

aabbcc
Your satellite tracking list
Your tracking list is empty




NASA's NSSDC Master Catalog

Two Line Element Set (TLE):
1 42701U 98067LJ  19015.34918370  .00092040  00000-0  31124-3 0  9994
2 42701  51.6318 340.8430 0002567  54.1033 306.0210 15.89189279 95485
Source of the keplerian elements: AMSAT